Time,TemperatureF,DewpointF,PressureIn,WindDirection,WindDirectionDegrees,WindSpeedMPH,WindSpeedGustMPH,Humidity,HourlyPrecipIn,Conditions,Clouds,dailyrainin,SoftwareType,DateUTC
2013-01-30 00:05:00,33.7,33.0,30.15,East,96,0.0,0.0,98,0.05,,,0.01,weatherlink.com 1.10,2013-01-30 05:05:00,
2013-01-30 00:21:00,33.7,33.0,30.14,East,96,0.0,0.0,98,0.04,,,0.01,weatherlink.com 1.10,2013-01-30 05:21:00,
2013-01-30 00:36:00,33.7,33.0,30.14,East,96,0.0,0.0,98,0.04,,,0.02,weatherlink.com 1.10,2013-01-30 05:36:00,
2013-01-30 00:51:00,33.8,33.0,30.13,East,98,0.0,0.0,98,0.05,,,0.05,weatherlink.com 1.10,2013-01-30 05:51:00,
2013-01-30 01:06:00,33.9,33.0,30.12,ESE,104,0.0,0.0,98,0.06,,,0.07,weatherlink.com 1.10,2013-01-30 06:06:00,
2013-01-30 01:21:00,34.0,34.0,30.11,ESE,105,0.0,0.0,98,0.06,,,0.07,weatherlink.com 1.10,2013-01-30 06:21:00,
2013-01-30 01:36:00,34.2,34.0,30.11,ESE,104,0.0,0.0,98,0.05,,,0.07,weatherlink.com 1.10,2013-01-30 06:36:00,
2013-01-30 01:51:00,34.7,34.0,30.11,South,179,1.0,2.0,98,0.03,,,0.08,weatherlink.com 1.10,2013-01-30 06:51:00,
2013-01-30 02:06:00,35.5,35.0,30.10,SSW,195,0.0,2.0,98,0.01,,,0.08,weatherlink.com 1.10,2013-01-30 07:06:00,
2013-01-30 02:21:00,35.9,35.0,30.09,SE,143,0.0,1.0,98,0.01,,,0.08,weatherlink.com 1.10,2013-01-30 07:21:00,
2013-01-30 02:36:00,36.1,36.0,30.08,SE,132,1.0,3.0,98,0.01,,,0.08,weatherlink.com 1.10,2013-01-30 07:36:00,
2013-01-30 02:51:00,36.4,36.0,30.08,SE,124,0.0,2.0,98,0.01,,,0.09,weatherlink.com 1.10,2013-01-30 07:51:00,
2013-01-30 03:06:00,36.6,36.0,30.07,SSW,208,0.0,2.0,98,0.01,,,0.09,weatherlink.com 1.10,2013-01-30 08:06:00,
2013-01-30 03:21:00,37.1,37.0,30.06,SSE,159,0.0,4.0,98,0.01,,,0.09,weatherlink.com 1.10,2013-01-30 08:21:00,
2013-01-30 03:36:00,37.5,37.0,30.05,SSE,153,0.0,4.0,98,0.01,,,0.09,weatherlink.com 1.10,2013-01-30 08:36:00,
2013-01-30 03:51:00,37.8,37.0,30.04,SW,215,0.0,5.0,98,0.00,,,0.09,weatherlink.com 1.10,2013-01-30 08:51:00,
2013-01-30 04:06:00,38.0,38.0,30.03,SSE,152,1.0,5.0,98,0.01,,,0.10,weatherlink.com 1.10,2013-01-30 09:06:00,
2013-01-30 04:21:00,38.0,38.0,30.02,South,183,0.0,4.0,98,0.01,,,0.10,weatherlink.com 1.10,2013-01-30 09:21:00,
2013-01-30 04:36:00,38.3,38.0,30.02,SSW,193,5.0,7.0,98,0.01,,,0.10,weatherlink.com 1.10,2013-01-30 09:36:00,
2013-01-30 04:51:00,38.5,38.0,30.02,SSW,205,3.0,6.0,98,0.01,,,0.10,weatherlink.com 1.10,2013-01-30 09:51:00,
2013-01-30 05:06:00,38.7,38.0,30.01,SSE,148,1.0,4.0,98,0.00,,,0.10,weatherlink.com 1.10,2013-01-30 10:06:00,
2013-01-30 05:21:00,38.7,38.0,30.01,South,172,0.0,3.0,98,0.00,,,0.10,weatherlink.com 1.10,2013-01-30 10:21:00,
2013-01-30 05:36:00,38.9,38.0,30.00,South,174,1.0,3.0,98,0.00,,,0.10,weatherlink.com 1.10,2013-01-30 10:36:00,
2013-01-30 05:52:00,39.1,39.0,30.00,South,183,2.0,4.0,98,0.00,,,0.10,weatherlink.com 1.10,2013-01-30 10:52:00,
2013-01-30 06:06:00,39.5,39.0,29.99,SSW,197,3.0,5.0,98,0.00,,,0.10,weatherlink.com 1.10,2013-01-30 11:06:00,
2013-01-30 06:21:00,40.1,40.0,29.99,ESE,111,1.0,7.0,98,0.00,,,0.10,weatherlink.com 1.10,2013-01-30 11:21:00,
2013-01-30 06:37:00,40.5,40.0,29.99,SSW,193,3.0,4.0,98,0.00,,,0.10,weatherlink.com 1.10,2013-01-30 11:37:00,
2013-01-30 06:52:00,41.0,41.0,29.98,SW,235,0.0,4.0,98,0.00,,,0.10,weatherlink.com 1.10,2013-01-30 11:52:00,
2013-01-30 07:07:00,41.3,41.0,29.97,SW,222,0.0,3.0,98,0.00,,,0.10,weatherlink.com 1.10,2013-01-30 12:07:00,
2013-01-30 07:22:00,41.8,41.0,29.96,SE,137,4.0,6.0,98,0.00,,,0.10,weatherlink.com 1.10,2013-01-30 12:22:00,
2013-01-30 07:37:00,42.3,42.0,29.95,SSE,154,0.0,6.0,98,0.00,,,0.10,weatherlink.com 1.10,2013-01-30 12:37:00,
2013-01-30 07:52:00,43.0,43.0,29.93,South,170,3.0,7.0,98,0.00,,,0.10,weatherlink.com 1.10,2013-01-30 12:52:00,
2013-01-30 08:07:00,44.2,44.0,29.93,SSW,204,4.0,6.0,98,0.00,,,0.10,weatherlink.com 1.10,2013-01-30 13:07:00,
2013-01-30 08:22:00,45.5,45.0,29.93,SSW,206,2.0,8.0,98,0.00,,,0.10,weatherlink.com 1.10,2013-01-30 13:22:00,
2013-01-30 08:37:00,46.8,46.0,29.92,South,184,3.0,6.0,98,0.00,,,0.10,weatherlink.com 1.10,2013-01-30 13:37:00,
2013-01-30 08:52:00,48.1,48.0,29.91,SSW,195,4.0,12.0,98,0.00,,,0.10,weatherlink.com 1.10,2013-01-30 13:52:00,
2013-01-30 09:07:00,49.6,49.0,29.90,SW,221,12.0,16.0,97,0.00,,,0.10,weatherlink.com 1.10,2013-01-30 14:07:00,
2013-01-30 09:22:00,51.7,51.0,29.89,SW,228,5.0,16.0,96,0.00,,,0.10,weatherlink.com 1.10,2013-01-30 14:22:00,
2013-01-30 09:37:00,52.8,52.0,29.89,WNW,293,3.0,14.0,95,0.00,,,0.10,weatherlink.com 1.10,2013-01-30 14:37:00,
2013-01-30 09:52:00,53.5,52.0,29.88,South,185,5.0,16.0,94,0.00,,,0.10,weatherlink.com 1.10,2013-01-30 14:52:00,
2013-01-30 10:07:00,54.1,53.0,29.88,South,191,7.0,15.0,94,0.00,,,0.10,weatherlink.com 1.10,2013-01-30 15:07:00,
2013-01-30 10:22:00,54.7,53.0,29.87,SW,218,7.0,14.0,93,0.00,,,0.10,weatherlink.com 1.10,2013-01-30 15:22:00,
2013-01-30 10:37:00,55.2,53.0,29.86,South,177,3.0,13.0,93,0.00,,,0.10,weatherlink.com 1.10,2013-01-30 15:37:00,
2013-01-30 10:52:00,55.6,54.0,29.85,SW,221,8.0,12.0,93,0.00,,,0.10,weatherlink.com 1.10,2013-01-30 15:52:00,
2013-01-30 11:08:00,56.0,54.0,29.84,SSE,155,7.0,12.0,93,0.00,,,0.10,weatherlink.com 1.10,2013-01-30 16:08:00,
2013-01-30 11:23:00,56.3,54.0,29.82,SSW,194,4.0,10.0,93,0.00,,,0.10,weatherlink.com 1.10,2013-01-30 16:23:00,
2013-01-30 11:38:00,56.9,55.0,29.80,SSE,153,5.0,10.0,93,0.00,,,0.10,weatherlink.com 1.10,2013-01-30 16:38:00,
2013-01-30 11:53:00,57.6,55.0,29.78,SW,222,10.0,17.0,92,0.00,,,0.10,weatherlink.com 1.10,2013-01-30 16:53:00,
2013-01-30 12:08:00,58.0,55.0,29.76,West,279,4.0,18.0,91,0.00,,,0.10,weatherlink.com 1.10,2013-01-30 17:08:00,
2013-01-30 12:23:00,58.3,56.0,29.75,WSW,240,8.0,12.0,91,0.00,,,0.10,weatherlink.com 1.10,2013-01-30 17:23:00,
2013-01-30 12:38:00,58.0,55.0,29.75,South,187,9.0,25.0,90,0.00,,,0.10,weatherlink.com 1.10,2013-01-30 17:38:00,
2013-01-30 12:53:00,57.1,55.0,29.74,SSW,200,12.0,22.0,91,0.00,,,0.10,weatherlink.com 1.10,2013-01-30 17:53:00,
2013-01-30 13:08:00,56.8,55.0,29.73,WSW,258,8.0,17.0,92,0.00,,,0.10,weatherlink.com 1.10,2013-01-30 18:08:00,
2013-01-30 13:23:00,56.7,55.0,29.71,WSW,244,5.0,17.0,92,0.00,,,0.10,weatherlink.com 1.10,2013-01-30 18:23:00,
2013-01-30 13:38:00,57.3,55.0,29.70,SW,231,13.0,18.0,92,0.00,,,0.10,weatherlink.com 1.10,2013-01-30 18:38:00,
2013-01-30 13:53:00,58.0,56.0,29.70,SSW,208,10.0,20.0,92,0.00,,,0.10,weatherlink.com 1.10,2013-01-30 18:53:00,
2013-01-30 14:08:00,57.7,56.0,29.70,SW,226,8.0,22.0,93,0.00,,,0.10,weatherlink.com 1.10,2013-01-30 19:08:00,
2013-01-30 14:23:00,57.2,55.0,29.69,WSW,245,12.0,26.0,93,0.00,,,0.10,weatherlink.com 1.10,2013-01-30 19:23:00,
2013-01-30 14:38:00,56.7,55.0,29.69,West,262,7.0,21.0,94,0.00,,,0.10,weatherlink.com 1.10,2013-01-30 19:38:00,
2013-01-30 14:53:00,56.5,55.0,29.69,SW,228,18.0,21.0,94,0.00,,,0.10,weatherlink.com 1.10,2013-01-30 19:53:00,
2013-01-30 15:08:00,56.2,55.0,29.68,SW,217,7.0,27.0,95,0.00,,,0.10,weatherlink.com 1.10,2013-01-30 20:08:00,
2013-01-30 15:23:00,56.4,55.0,29.67,SW,229,18.0,23.0,96,0.00,,,0.10,weatherlink.com 1.10,2013-01-30 20:23:00,
2013-01-30 15:38:00,56.6,56.0,29.67,South,172,20.0,23.0,96,0.00,,,0.10,weatherlink.com 1.10,2013-01-30 20:38:00,
2013-01-30 15:53:00,56.5,55.0,29.67,WSW,256,8.0,23.0,96,0.00,,,0.10,weatherlink.com 1.10,2013-01-30 20:53:00,
2013-01-30 16:08:00,56.6,56.0,29.66,WSW,240,13.0,22.0,96,0.00,,,0.10,weatherlink.com 1.10,2013-01-30 21:08:00,
2013-01-30 16:23:00,56.9,56.0,29.66,WSW,252,5.0,20.0,96,0.00,,,0.10,weatherlink.com 1.10,2013-01-30 21:23:00,
2013-01-30 16:38:00,57.1,56.0,29.66,WNW,283,8.0,25.0,95,0.00,,,0.10,weatherlink.com 1.10,2013-01-30 21:38:00,
2013-01-30 16:53:00,57.0,56.0,29.67,SSW,197,11.0,20.0,95,0.00,,,0.10,weatherlink.com 1.10,2013-01-30 21:53:00,
2013-01-30 17:08:00,57.0,56.0,29.66,SW,226,13.0,27.0,95,0.00,,,0.10,weatherlink.com 1.10,2013-01-30 22:08:00,
2013-01-30 17:23:00,57.4,56.0,29.66,WSW,243,8.0,21.0,95,0.00,,,0.10,weatherlink.com 1.10,2013-01-30 22:23:00,
2013-01-30 17:38:00,57.6,56.0,29.67,West,260,4.0,18.0,94,0.00,,,0.10,weatherlink.com 1.10,2013-01-30 22:38:00,
2013-01-30 17:53:00,57.5,56.0,29.66,WSW,257,12.0,23.0,94,0.00,,,0.10,weatherlink.com 1.10,2013-01-30 22:53:00,
2013-01-30 18:08:00,57.3,56.0,29.65,SW,235,13.0,22.0,94,0.00,,,0.10,weatherlink.com 1.10,2013-01-30 23:08:00,
2013-01-30 18:23:00,57.3,56.0,29.65,SW,222,17.0,24.0,94,0.00,,,0.10,weatherlink.com 1.10,2013-01-30 23:23:00,
2013-01-30 18:38:00,57.2,56.0,29.64,SSW,208,3.0,21.0,95,0.00,,,0.10,weatherlink.com 1.10,2013-01-30 23:38:00,
2013-01-30 18:53:00,57.2,56.0,29.63,SW,219,5.0,30.0,95,0.00,,,0.10,weatherlink.com 1.10,2013-01-30 23:53:00,
2013-01-30 19:08:00,57.4,56.0,29.63,SW,215,9.0,25.0,94,0.00,,,0.10,weatherlink.com 1.10,2013-01-31 00:08:00,
2013-01-30 19:23:00,57.5,56.0,29.63,WSW,246,8.0,17.0,94,0.00,,,0.10,weatherlink.com 1.10,2013-01-31 00:23:00,
2013-01-30 19:39:00,57.9,57.0,29.61,SSE,159,8.0,24.0,95,0.00,,,0.10,weatherlink.com 1.10,2013-01-31 00:39:00,
2013-01-30 19:54:00,58.2,57.0,29.61,SW,219,11.0,26.0,94,0.00,,,0.10,weatherlink.com 1.10,2013-01-31 00:54:00,
2013-01-30 20:09:00,58.3,57.0,29.61,SW,235,13.0,22.0,94,0.00,,,0.10,weatherlink.com 1.10,2013-01-31 01:09:00,
2013-01-30 20:24:00,58.2,56.0,29.60,SW,235,10.0,22.0,93,0.00,,,0.10,weatherlink.com 1.10,2013-01-31 01:24:00,
2013-01-30 20:39:00,57.9,56.0,29.59,SW,221,4.0,24.0,94,0.01,,,0.11,weatherlink.com 1.10,2013-01-31 01:39:00,
2013-01-30 20:54:00,58.0,56.0,29.58,WNW,301,8.0,21.0,94,0.02,,,0.12,weatherlink.com 1.10,2013-01-31 01:54:00,
2013-01-30 21:09:00,58.3,57.0,29.58,West,259,14.0,29.0,94,0.03,,,0.13,weatherlink.com 1.10,2013-01-31 02:09:00,
2013-01-30 21:24:00,58.0,56.0,29.58,SE,135,10.0,28.0,94,0.04,,,0.14,weatherlink.com 1.10,2013-01-31 02:24:00,
2013-01-30 21:39:00,57.4,56.0,29.57,SSW,210,8.0,21.0,95,0.04,,,0.15,weatherlink.com 1.10,2013-01-31 02:39:00,
2013-01-30 21:54:00,56.9,56.0,29.57,West,259,6.0,14.0,95,0.03,,,0.15,weatherlink.com 1.10,2013-01-31 02:54:00,
2013-01-30 22:09:00,56.6,55.0,29.57,SSW,205,5.0,17.0,95,0.02,,,0.15,weatherlink.com 1.10,2013-01-31 03:09:00,
2013-01-30 22:24:00,56.4,55.0,29.55,SW,233,6.0,15.0,95,0.01,,,0.15,weatherlink.com 1.10,2013-01-31 03:24:00,
2013-01-30 22:39:00,56.3,55.0,29.55,SW,222,6.0,18.0,94,0.00,,,0.15,weatherlink.com 1.10,2013-01-31 03:39:00,
2013-01-30 22:54:00,56.2,55.0,29.54,SSW,212,8.0,17.0,94,0.00,,,0.15,weatherlink.com 1.10,2013-01-31 03:54:00,
2013-01-30 23:09:00,56.4,55.0,29.54,SSW,205,6.0,21.0,94,0.00,,,0.15,weatherlink.com 1.10,2013-01-31 04:09:00,
2013-01-30 23:24:00,56.7,55.0,29.52,SW,235,17.0,19.0,94,0.00,,,0.15,weatherlink.com 1.10,2013-01-31 04:24:00,
2013-01-30 23:39:00,57.2,55.0,29.51,SW,222,14.0,17.0,93,0.00,,,0.15,weatherlink.com 1.10,2013-01-31 04:39:00,
2013-01-30 23:54:00,57.6,56.0,29.50,SW,231,11.0,22.0,93,0.00,,,0.15,weatherlink.com 1.10,2013-01-31 04:54:00,